Back to catalog

CZ-6A DEB

AliveSSO
NORAD 56635·DEBRIS·🇨🇳 China

Launched Nov 11, 2022 from Taiyuan Satellite Launch Center

Loading…

Next Passes (next 24 hours)

TLE

FreshSource: Space-Track

Epoch: Sep 13, 2026, 23:10 UTC

1 56635U 22151AFK 26256.96548912  .00000170  00000-0  98757-4 0  9999
2 56635  98.7538 266.7838 0031994  90.1270 270.3573 14.20631967175595

Track CZ-6A DEB in real time with AllMySat

Download on the App Store